STARLINK-11173, 60192

Orbit data source: Space-Track

STARLINK-11173, 60192 is a payload satellite owned by SpaceX/Seattle (US) in LEO that was launched on Wed, 03 Jul 2024 UTC via an FALCON 9 launch vehicle from the Air Force Eastern Test Range (AFETR). Payload-class satellites include a variety of spacecraft equipped with specific instruments for various scientific and technological missions. These include communications satellites like Starlink; space stations such as the ISS; scientific satellites like the Hubble; Earth observation satellites from companies like Planet Labs, Umbra, and HawkEye 360; GPS; miniature CubeSats for education and research; and military/defense satellites.

Loading next visibility...
Identifier
60192, 2024-124K
Orbit
LEO
Country
Flag of USUS
Related business
Manufacturer
SpaceX/Seattle
Mission
Operational Commercial Communications
Bus & Motor
STARLINK V2MD, Unknown motor
Mass
960 kg wet, ~910 kg dry
Launch date (UTC)
2024-07-03 (2 years ago)
Launch vehicle
FALCON 9
Launch site
Air Force Eastern Test Range (AFETR)
Object type
Payload
Rocket body
Debris
Shape & HBR
Box + 2 Pan, 18.1 m
Radar Cross Section
36.964 m², Large (>1 m²)

Expand to show TLE details & history
Last TLE update: 1 day ago

TLE from 1 day ago
0 STARLINK-11173
1 60192U 24124K   26034.12699591 -.00002371  00000-0 -14712-4 0  9992
2 60192  53.1596 331.7776 0001102 103.3908 256.7233 15.69712949 91103
Epoch: 2026-02-03T03:02Z
TLE epoch observation values (Epoch: 2026-02-03T03:02:52.446Z)
Latitude
-0.00001°
Longitude
152.74667°
Altitude
360.804 km
Speed
7.694 km/s
True Right ascension
22h 07m 06s
True Declination
0° 00' 00"
Sunlit
Object was in daylight at epoch
Visualization orbit readout
Latitude
Unknown
Longitude
Unknown
Altitude
Unknown
Speed
Unknown
Apparent Right ascension
Unknown
Apparent Declination
Unknown
Sunlit
N/A
Visualization observer readout
Local Sidereal Time
09:15:26
Azimuth
Unknown
Elevation
Unknown
Doppler factor
Unknown
Orbital elements
Apogee altitude
360.722 km
Perigee altitude
359.237 km
Semi-major axis
6,738.116 km
Eccentricity
0.00011
Inclination
53.1596°
RAAN
331.7776°
Arg. of periapsis
103.3908°
True anomaly
256.71101°
Mean anomaly
256.7233°
Eccentric anomaly
256.71715°
Mean motion
3.92406 °/min
Orbital period
91.74 mins
BSTAR
-0.000014712
Loading maneuver chart data...
Computing Atmospheric mass density...
Loading historical data...
Loading historical data...
Loading historical data...
Loading historical data...
Loading historical data...
Loading historical data...
Loading historical data...

Documentation

Showing up to 5 results
|